{"data":{"norad_id":61678,"epoch":"2026-09-21T16:45:36.645984Z","epoch_age_seconds":84959,"freshness":"FRESH","line1":"1 61678U 24193T   26264.69834081  .00002218  00000+0  76787-4 0  9997","line2":"2 61678  53.1577 255.7989 0001284  90.1774 269.9376 15.34388080106601","mean_motion":15.3438808,"eccentricity":0.0001284,"inclination_deg":53.1577,"raan_deg":255.7989,"arg_perigee_deg":90.1774,"mean_anomaly_deg":269.9376,"bstar":7.6787e-5,"rev_number":10660,"period_min":93.848487144139,"perigee_km":461.86030075257,"apogee_km":463.61703762441,"semimajor_km":6840.8756691885,"source":"CELESTRAK","updated_at":"2026-09-22T09:00:49.403302Z"}}